Probability
0 0 0 0 0 0 0 0 0 0 0 0 0 0 0 0 0 0 0 0 6 16 23 23 39 45 45 45 48 52 52 52 55 61 58 61 55 52 52 48 48 48 48 48 45 42 35 35 29
0 0 0 0 0 0 0 0 0 0 0 0 0 0 0 0 0 0 0 0 6 16 16 16 35 35 42 45 45 45 39 39 45 45 55 45 48 52 45 45 48 45 45 45 42 42 39 39 32
0 0 0 0 0 0 0 0 0 0 0 0 0 0 0 0 0 0 0 0 6 13 16 23 32 35 35 39 42 39 39 29 35 35 35 35 39 45 42 45 48 39 45 42 42 39 35 32 32
0 0 0 0 0 0 0 0 0 0 0 0 0 0 0 0 0 0 0 0 3 6 16 23 29 29 32 35 39 35 35 29 29 32 35 26 26 35 39 42 42 42 39 29 35 39 39 32 32
0 0 0 0 0 0 0 0 0 0 0 0 0 0 0 0 0 0 0 3 3 6 13 23 26 29 32 32 35 35 32 23 19 29 32 26 23 26 32 35 35 35 29 26 26 29 35 32 29
0 0 0 0 0 0 0 0 0 0 0 0 0 0 0 0 0 0 0 3 3 6 10 19 26 26 29 29 32 29 23 23 16 19 26 23 26 23 16 26 23 23 23 29 26 26 29 23 29
0 0 0 0 0 0 0 0 0 0 0 0 0 0 0 0 0 0 0 3 3 3 6 10 16 19 19 29 29 19 19 23 19 16 16 19 16 10 16 13 19 16 16 23 26 26 23 19 19
0 0 0 0 0 0 0 0 0 0 0 0 0 0 0 0 0 0 0 3 3 0 6 6 13 13 13 10 10 13 16 16 16 3 3 3 0 3 16 13 10 10 13 6 16 23 19 13 13
0 0 0 0 0 0 0 0 0 0 0 0 0 0 0 0 0 3 3 3 3 0 3 6 6 10 13 10 10 6 10 6 0 3 0 0 0 0 0 0 0 3 6 3 3 6 10 6 3
0 0 0 0 0 0 0 0 0 0 0 0 0 0 0 0 0 0 3 3 3 0 0 3 6 10 6 6 6 3 3 3 0 0 0 0 0 0 0 0 0 0 0 0 3 3 0 0 0
0 0 0 0 0 0 0 0 0 0 0 0 0 0 0 0 0 0 0 0 3 3 3 3 6 3 6 3 0 3 3 3 3 0 0 0 0 0 0 0 0 0 0 0 0 0 0 0 0
0 0 0 0 0 0 0 0 0 0 0 0 0 0 0 0 0 0 0 0 0 3 3 3 0 3 6 3 0 0 3 3 3 3 0 0 0 0 0 0 0 0 0 0 0 0 0 0 0
0 0 0 0 0 0 0 0 0 0 0 0 0 0 0 0 0 0 0 0 0 0 0 0 0 3 0 0 0 0 0 0 3 3 0 0 0 0 0 0 0 0 0 0 0 0 0 0 0
0 0 0 0 0 0 0 0 0 0 0 0 0 0 0 0 0 0 0 0 0 0 0 0 0 0 0 0 0 0 0 0 0 0 0 0 0 0 0 0 0 0 0 0 0 0 0 0 0
0 0 0 0 0 0 0 0 0 0 0 0 0 0 0 0 0 0 0 0 0 0 0 0 0 0 0 0 0 0 0 0 0 0 0 0 0 0 0 0 0 0 0 0 0 0 0 0 0
0 0 0 0 0 0 0 0 0 0 0 0 0 0 0 0 0 0 0 0 0 0 0 0 0 0 0 0 0 0 0 0 0 0 0 0 0 0 0 0 0 0 0 0 0 0 0 0 0
0 0 0 0 0 0 0 0 0 0 0 0 0 0 0 0 0 0 0 0 0 0 0 0 0 0 0 0 0 0 0 0 0 0 0 0 0 0 0 0 0 0 0 0 0 0 0 0 0
0 0 0 0 0 0 0 0 0 0 0 0 0 0 0 0 0 0 0 0 0 0 0 0 0 0 0 0 0 0 0 0 0 0 0 0 0 0 0 0 0 0 0 0 0 0 0 0 0
0 0 0 0 0 0 0 0 0 0 0 0 0 0 0 0 0 0 0 0 0 0 0 0 0 0 0 0 0 0 0 0 0 0 0 0 0 0 0 0 0 0 0 0 0 0 0 0 0
0 0 0 0 0 0 0 0 0 0 0 0 0 0 0 0 0 0 0 0 0 0 0 0 0 0 0 0 0 0 0 0 0 0 0 0 0 0 0 0 0 0 0 0 0 0 0 0 0
0 0 0 0 0 0 0 0 0 0 0 0 0 0 0 0 0 0 0 0 0 0 0 0 0 0 0 0 0 0 0 0 0 0 3 0 0 0 0 0 0 0 0 0 0 0 0 0 0
0 0 0 0 0 0 0 0 0 0 0 0 0 0 0 0 0 0 0 0 0 0 0 0 0 0 0 0 0 0 0 0 0 0 0 0 0 0 0 0 0 0 0 0 0 0 0 0 0
0 0 0 0 0 0 0 0 0 0 0 0 0 0 0 0 0 0 0 0 0 0 0 0 0 0 0 0 0 0 0 0 0 0 0 0 0 0 0 0 0 0 0 0 0 0 0 0 0
0 0 0 0 0 0 0 0 0 0 0 0 0 0 0 0 0 0 0 0 0 0 0 0 0 0 0 0 0 0 0 0 0 0 0 0 0 0 0 0 0 0 0 0 0 0 0 0 0
0 0 0 0 0 0 0 0 0 0 0 0 0 0 0 0 0 0 0 0 0 0 0 0 0 0 0 0 0 0 0 0 0 0 0 0 0 0 0 0 0 0 0 0 0 0 0 0 0
0 0 0 0 0 0 0 0 0 0 0 0 0 0 0 0 0 0 0 0 0 0 0 0 0 0 0 0 0 0 0 0 0 0 0 0 0 0 0 0 0 0 0 0 0 0 0 0 0
0 0 0 0 0 0 0 0 0 0 0 0 0 0 0 0 0 0 0 0 0 0 0 0 0 0 0 0 0 0 0 0 0 0 0 0 0 0 0 0 0 0 0 0 0 0 0 0 0
0 0 0 0 0 0 0 0 0 0 0 0 0 0 0 0 0 0 0 0 0 0 0 0 0 0 0 0 0 0 0 0 0 0 0 0 0 0 0 0 0 0 0 0 0 0 0 0 0
0 0 0 0 0 0 0 0 0 0 0 0 0 0 0 0 0 0 0 0 0 0 0 0 0 0 0 0 0 0 0 0 0 0 0 0 0 0 0 0 0 0 0 0 0 0 0 0 0
0 0 0 0 0 0 0 0 0 0 0 0 0 0 0 0 0 0 0 0 0 0 0 0 0 0 0 0 0 0 0 0 0 0 0 0 0 0 0 0 0 0 0 0 0 0 0 0 0
Height
5810 5811 5812 5814 5816 5817 5818 5820 5821 5822 5824 5825 5826 5827 5828 5829 5830 5833 5833 5834 5835 5836 5837 5838 5839 5840 5841 5842 5843 5844 5845 5846 5847 5848 5849 5850 5851 5852 5852 5853 5854 5855 5855 5855 5856 5856 5857 5857 5857
5806 5807 5809 5810 5811 5813 5814 5816 5817 5818 5820 5821 5822 5823 5824 5825 5825 5827 5828 5829 5830 5831 5833 5834 5835 5836 5837 5838 5839 5840 5841 5842 5843 5844 5845 5846 5847 5848 5849 5850 5850 5851 5852 5852 5853 5853 5854 5854 5854
5801 5803 5805 5806 5807 5809 5810 5811 5813 5814 5815 5817 5818 5819 5820 5821 5822 5822 5823 5824 5826 5827 5828 5829 5830 5831 5832 5833 5834 5835 5837 5838 5839 5840 5841 5842 5843 5844 5845 5846 5846 5847 5848 5849 5849 5850 5850 5850 5851
5797 5799 5801 5802 5803 5804 5805 5807 5808 5809 5810 5812 5813 5814 5815 5817 5817 5817 5818 5819 5820 5821 5822 5823 5825 5826 5827 5828 5829 5830 5832 5833 5834 5835 5836 5837 5838 5839 5840 5842 5842 5843 5844 5844 5845 5846 5846 5846 5847
5793 5795 5796 5797 5799 5800 5801 5802 5803 5804 5805 5806 5807 5809 5810 5811 5811 5812 5813 5813 5814 5815 5816 5817 5818 5820 5821 5822 5823 5825 5826 5827 5828 5830 5831 5832 5833 5834 5835 5837 5838 5838 5839 5840 5841 5841 5842 5842 5843
5789 5790 5792 5793 5794 5795 5796 5797 5798 5799 5800 5801 5802 5803 5803 5804 5805 5806 5807 5807 5808 5809 5810 5811 5812 5813 5814 5815 5817 5818 5820 5821 5822 5824 5825 5826 5827 5829 5830 5831 5833 5834 5835 5836 5837 5837 5838 5838 5839
5785 5785 5786 5788 5788 5789 5791 5792 5792 5793 5794 5795 5795 5796 5797 5798 5799 5799 5800 5800 5801 5802 5803 5803 5804 5805 5807 5808 5809 5811 5813 5814 5816 5817 5818 5820 5821 5823 5824 5826 5827 5828 5829 5830 5831 5832 5833 5834 5834
5779 5781 5782 5782 5783 5784 5785 5786 5786 5787 5788 5789 5788 5789 5791 5791 5791 5792 5792 5793 5793 5794 5795 5795 5796 5797 5798 5800 5801 5803 5805 5806 5808 5810 5811 5813 5814 5816 5818 5819 5821 5822 5823 5824 5825 5826 5828 5828 5829
5774 5777 5777 5777 5777 5778 5779 5780 5780 5780 5781 5781 5781 5782 5783 5783 5784 5784 5785 5785 5785 5786 5786 5786 5787 5788 5789 5790 5792 5794 5796 5798 5800 5801 5803 5805 5807 5808 5810 5812 5814 5815 5817 5818 5819 5820 5821 5822 5823
5770 5771 5772 5772 5772 5772 5773 5773 5774 5774 5774 5775 5775 5775 5775 5774 5775 5776 5776 5776 5777 5777 5777 5777 5777 5778 5779 5780 5782 5784 5786 5788 5790 5792 5794 5796 5798 5800 5802 5804 5806 5808 5809 5811 5812 5813 5815 5816 5817
5765 5766 5766 5766 5766 5766 5766 5767 5767 5767 5767 5767 5767 5767 5766 5766 5766 5766 5766 5767 5768 5768 5767 5767 5767 5767 5768 5769 5771 5773 5776 5778 5780 5783 5785 5787 5790 5792 5794 5796 5798 5799 5801 5803 5804 5806 5808 5809 5810
5760 5761 5760 5761 5760 5760 5760 5760 5760 5760 5760 5760 5759 5759 5758 5757 5757 5757 5757 5757 5758 5758 5757 5757 5757 5757 5757 5758 5760 5762 5764 5767 5770 5772 5775 5777 5779 5782 5784 5787 5789 5791 5793 5795 5796 5798 5799 5801 5803
5756 5756 5755 5755 5754 5754 5754 5753 5753 5754 5753 5752 5751 5750 5749 5748 5748 5748 5747 5747 5748 5747 5747 5746 5746 5746 5747 5747 5748 5750 5753 5755 5758 5760 5763 5766 5768 5771 5774 5776 5779 5782 5784 5786 5787 5789 5791 5793 5794
5751 5751 5750 5750 5749 5748 5747 5747 5746 5747 5745 5744 5742 5741 5740 5739 5738 5738 5737 5737 5737 5737 5736 5735 5735 5735 5735 5736 5737 5739 5741 5743 5745 5748 5751 5754 5757 5760 5763 5766 5769 5771 5774 5776 5778 5780 5782 5784 5786
5745 5745 5745 5745 5743 5742 5741 5741 5740 5739 5737 5735 5733 5732 5730 5729 5728 5728 5727 5727 5727 5726 5725 5724 5724 5723 5723 5724 5725 5726 5727 5730 5733 5735 5738 5741 5744 5748 5751 5754 5757 5760 5762 5765 5767 5770 5772 5774 5776
5740 5740 5740 5739 5737 5736 5736 5734 5733 5730 5728 5726 5724 5722 5721 5719 5718 5717 5717 5716 5716 5715 5714 5712 5711 5711 5711 5711 5711 5712 5713 5716 5719 5722 5725 5728 5731 5734 5738 5741 5745 5748 5750 5753 5756 5759 5761 5763 5765
5735 5734 5733 5733 5731 5729 5727 5726 5725 5722 5719 5718 5715 5713 5711 5709 5708 5707 5706 5705 5704 5703 5702 5701 5699 5699 5698 5697 5697 5697 5699 5701 5704 5708 5711 5713 5716 5720 5724 5728 5731 5735 5738 5741 5744 5747 5749 5752 5754
5730 5729 5727 5726 5725 5722 5720 5719 5717 5714 5711 5709 5706 5704 5702 5700 5697 5696 5695 5694 5693 5692 5690 5689 5688 5686 5685 5684 5683 5683 5684 5686 5690 5693 5696 5699 5701 5705 5710 5714 5718 5721 5724 5728 5731 5734 5736 5739 5741
5724 5723 5721 5720 5718 5715 5713 5711 5710 5707 5704 5701 5698 5695 5693 5691 5688 5686 5685 5683 5682 5680 5679 5677 5675 5674 5673 5671 5670 5670 5671 5673 5676 5679 5683 5685 5687 5691 5695 5699 5703 5706 5710 5713 5717 5720 5723 5726 5728
5718 5717 5715 5714 5711 5709 5706 5704 5702 5699 5696 5692 5689 5686 5684 5681 5679 5677 5675 5673 5671 5669 5667 5665 5664 5662 5660 5658 5658 5658 5658 5661 5663 5666 5669 5672 5674 5677 5681 5685 5688 5692 5695 5699 5702 5705 5708 5711 5714
5713 5711 5709 5707 5705 5703 5700 5698 5696 5692 5687 5684 5681 5678 5675 5672 5670 5668 5665 5663 5661 5659 5657 5654 5653 5651 5648 5646 5646 5646 5647 5649 5651 5654 5656 5659 5661 5664 5667 5671 5674 5678 5681 5685 5688 5691 5694 5698 5701
5707 5705 5703 5701 5698 5696 5694 5690 5689 5684 5680 5676 5673 5670 5667 5664 5662 5659 5656 5653 5651 5649 5646 5644 5642 5640 5638 5636 5635 5636 5636 5638 5640 5641 5643 5646 5648 5651 5654 5657 5660 5664 5667 5671 5674 5677 5680 5682 5686
5701 5699 5697 5695 5692 5690 5687 5683 5682 5677 5673 5669 5665 5662 5659 5656 5653 5650 5647 5644 5642 5639 5636 5634 5632 5630 5628 5625 5624 5624 5625 5626 5627 5628 5630 5633 5635 5638 5641 5644 5647 5651 5654 5657 5660 5663 5665 5668 5671
5695 5694 5692 5689 5686 5684 5681 5676 5673 5670 5666 5662 5658 5655 5652 5649 5646 5643 5640 5637 5634 5631 5628 5626 5624 5621 5619 5616 5615 5614 5613 5613 5614 5616 5617 5620 5623 5626 5629 5632 5635 5638 5641 5644 5647 5649 5651 5654 5657
5689 5688 5685 5682 5680 5678 5675 5670 5668 5664 5659 5655 5651 5648 5646 5643 5640 5637 5633 5630 5627 5624 5621 5618 5616 5613 5610 5608 5606 5604 5602 5602 5602 5603 5605 5607 5611 5614 5616 5619 5622 5624 5628 5630 5633 5635 5637 5640 5643
5682 5681 5680 5676 5673 5671 5668 5665 5663 5658 5653 5648 5645 5642 5640 5637 5634 5631 5627 5624 5621 5618 5615 5612 5609 5606 5603 5600 5597 5595 5593 5591 5591 5591 5594 5596 5599 5602 5604 5606 5609 5612 5615 5617 5620 5622 5625 5627 5629
5676 5675 5673 5670 5667 5664 5662 5659 5656 5653 5648 5644 5640 5637 5635 5631 5628 5625 5621 5618 5615 5613 5610 5606 5603 5600 5597 5593 5590 5587 5585 5582 5581 5581 5583 5584 5587 5589 5592 5594 5597 5600 5603 5605 5607 5610 5612 5614 5617
5669 5668 5666 5664 5660 5657 5656 5653 5651 5648 5643 5639 5635 5632 5629 5626 5623 5619 5616 5614 5611 5608 5605 5601 5598 5594 5591 5587 5584 5580 5577 5574 5572 5572 5572 5574 5576 5578 5580 5583 5586 5589 5591 5593 5596 5598 5600 5602 5605
5663 5662 5659 5657 5655 5652 5649 5650 5646 5642 5638 5634 5631 5628 5625 5621 5618 5615 5612 5610 5607 5603 5600 5596 5592 5588 5585 5581 5578 5574 5570 5567 5564 5563 5563 5564 5565 5567 5569 5573 5576 5578 5580 5583 5585 5587 5589 5591 5593
5655 5654 5653 5652 5649 5646 5644 5646 5640 5637 5633 5630 5626 5624 5620 5617 5614 5611 5608 5605 5602 5598 5594 5591 5587 5583 5580 5575 5571 5567 5563 5560 5557 5555 5554 5555 5556 5558 5561 5563 5566 5568 5570 5572 5574 5576 5578 5580 5582
Wind_Speed
21 21 21 21 21 21 21 20 20 20 19 19 20 21 21 22 23 24 24 22 23 23 24 24 24 24 24 24 24 24 25 25 25 25 24 23 23 23 23 22 22 21 21 20 20 19 19 18 18
22 23 23 23 23 22 23 22 22 21 21 22 22 23 23 24 25 25 25 24 25 26 26 26 26 26 26 26 26 26 26 26 26 26 26 25 25 25 24 24 24 23 22 22 21 21 21 20 20
23 24 24 24 24 24 25 23 24 23 24 24 24 25 24 25 25 26 26 26 26 27 28 28 28 28 28 28 28 28 28 28 28 28 27 27 27 27 26 26 26 25 25 24 23 23 22 22 22
23 24 24 25 25 25 25 24 24 25 26 26 26 27 26 26 27 27 28 28 28 29 30 31 31 31 31 31 31 30 30 30 30 30 30 29 29 28 28 28 27 27 27 26 26 25 24 24 23
24 24 25 25 25 25 25 25 25 26 27 28 28 28 29 29 29 29 30 30 31 31 32 33 33 33 34 34 33 33 32 32 32 32 32 31 31 30 30 30 29 29 29 28 27 27 26 25 25
23 24 25 24 25 25 26 26 27 28 28 29 29 30 30 31 31 31 32 32 33 33 34 35 36 36 36 37 37 36 36 35 35 34 34 34 33 33 32 31 31 30 30 29 29 28 28 27 26
23 24 24 24 25 26 26 27 28 29 29 29 31 32 32 33 33 33 34 34 34 35 35 37 38 39 39 39 39 39 39 38 37 37 37 36 36 35 34 34 33 32 32 31 30 30 29 29 28
23 23 23 24 26 27 27 28 29 30 30 30 32 33 33 34 34 35 35 35 36 36 37 38 39 41 42 42 43 42 42 41 40 40 39 39 38 38 37 36 35 35 34 33 32 31 31 31 30
23 23 23 24 26 26 26 28 29 30 31 32 33 34 34 35 36 36 36 37 37 38 39 40 41 42 43 44 45 45 44 44 43 43 42 42 41 40 39 39 38 37 36 35 35 34 33 33 32
21 22 23 24 25 26 27 28 29 30 31 32 33 34 34 36 36 37 37 38 38 39 40 41 42 43 44 45 46 46 47 46 46 46 45 44 44 43 42 41 40 40 39 38 38 36 35 35 34
19 20 21 22 24 25 26 27 28 30 30 31 33 33 34 36 37 37 38 38 39 39 41 42 43 43 44 46 46 47 47 47 47 47 47 47 46 45 45 44 43 42 42 41 40 39 38 37 36
19 19 20 21 23 25 26 27 28 29 30 31 32 33 34 36 37 37 38 39 39 39 40 41 42 43 44 45 46 47 48 48 48 48 48 48 48 47 46 46 45 44 44 43 43 41 40 39 38
18 19 20 21 22 24 26 27 28 28 30 31 32 33 34 36 37 37 38 39 38 39 40 41 41 42 43 44 46 47 48 48 49 49 49 49 48 48 48 47 46 46 45 45 45 44 43 41 40
18 19 20 21 22 24 26 27 28 28 30 31 33 34 35 36 37 37 37 38 38 39 41 41 42 43 43 45 46 47 48 49 50 50 51 51 51 50 50 50 49 48 47 47 47 45 45 44 43
19 20 21 21 23 24 26 27 28 29 31 32 34 35 35 36 37 37 37 38 39 39 41 43 43 44 44 45 46 48 49 50 51 51 51 53 53 52 52 51 51 51 50 49 48 48 46 45 45
19 20 21 21 23 24 26 27 28 29 30 32 34 35 35 36 37 38 38 38 39 40 41 42 43 44 45 45 47 48 50 51 51 52 51 53 54 54 54 53 53 52 52 51 50 49 48 48 47
19 20 21 22 23 25 26 26 27 29 30 32 33 34 35 36 37 37 38 38 39 39 40 41 42 43 44 45 46 48 49 50 51 51 51 52 53 55 55 55 55 54 54 53 52 51 51 50 50
20 21 22 23 23 25 26 27 28 29 31 32 32 33 33 34 35 36 36 37 38 38 38 40 41 43 43 44 45 46 47 49 49 50 50 51 52 54 55 56 56 56 54 54 53 52 52 52 51
21 22 23 24 24 25 26 27 28 29 30 32 32 32 33 33 33 33 34 35 36 37 37 39 40 42 43 43 44 45 46 47 48 49 50 50 50 52 54 55 55 56 55 55 54 53 54 53 52
22 23 23 24 24 26 27 27 28 29 30 31 31 31 32 31 32 32 34 34 35 36 36 38 38 38 40 41 42 42 43 45 47 48 48 49 49 51 52 53 54 56 56 56 55 54 55 54 53
22 23 23 24 25 26 28 27 27 28 29 29 29 30 31 30 30 32 33 33 33 34 35 35 36 36 37 39 39 40 41 42 45 46 47 47 48 49 50 51 52 53 55 55 55 55 55 54 53
22 23 24 25 26 26 27 28 26 27 28 28 28 29 29 29 30 32 32 31 31 33 34 34 34 34 35 37 39 39 40 41 43 45 45 46 46 47 48 49 50 51 52 53 53 54 54 54 53
23 23 24 25 26 26 26 29 27 27 27 28 28 28 28 29 30 30 30 30 31 32 31 31 32 33 34 35 36 38 39 41 42 43 44 45 46 46 47 48 49 49 50 51 52 52 53 55 54
24 24 25 26 26 26 26 28 28 26 27 28 28 28 28 28 29 29 30 30 30 29 28 29 30 31 32 33 34 36 37 39 41 43 43 43 44 45 46 47 47 48 49 50 50 50 52 53 53
24 25 26 27 27 26 26 28 28 27 28 28 28 28 27 28 29 29 29 29 28 27 27 28 29 29 31 32 32 33 35 37 38 39 41 41 42 44 45 46 46 46 47 47 47 49 48 49 50
24 25 26 28 28 28 27 28 27 27 28 29 28 27 27 27 28 29 29 28 26 26 26 26 27 27 29 30 30 31 33 34 35 38 39 40 41 42 43 44 44 44 45 45 45 46 46 46 47
25 25 26 28 29 29 29 28 27 27 27 28 28 27 26 27 28 28 27 26 26 26 26 26 26 27 28 29 30 31 32 34 34 35 36 38 38 39 41 41 42 42 43 44 44 43 44 45 45
27 27 27 28 30 31 30 29 28 27 27 28 27 27 26 27 27 27 25 25 25 26 26 26 27 28 29 29 29 30 32 33 33 33 33 35 36 38 39 38 39 39 40 41 42 43 43 43 44
28 28 28 29 30 31 32 31 29 28 28 28 26 25 25 26 26 26 25 25 25 26 27 27 28 29 29 28 29 30 32 33 32 31 32 33 34 36 37 37 37 36 37 40 41 41 42 42 42
29 29 29 30 30 31 32 31 29 29 28 27 25 25 25 26 26 25 25 26 26 27 26 27 28 29 29 29 30 30 32 31 30 30 31 32 32 33 34 34 34 34 36 38 39 39 40 40 40
Wind_Direction
244 244 244 245 246 247 248 249 251 250 251 251 251 250 251 253 254 257 257 255 253 252 251 251 251 250 251 251 250 249 250 250 250 250 250 250 250 251 251 252 254 255 255 257 259 261 262 262 264
245 245 245 247 248 249 250 250 251 252 252 252 253 253 253 254 255 257 258 256 253 252 252 251 251 251 252 252 252 250 250 250 251 251 251 251 251 251 251 252 252 254 255 258 260 261 262 264 264
246 246 246 248 249 251 253 253 254 254 254 255 255 255 255 256 257 258 258 256 254 254 253 252 251 251 251 252 252 252 251 250 251 252 252 252 252 252 253 253 253 254 255 257 259 261 262 265 266
247 248 248 249 250 252 255 256 256 256 256 257 256 256 257 257 257 258 259 258 256 255 254 254 253 253 252 252 252 252 252 252 252 252 253 252 252 253 254 254 255 255 255 256 258 260 262 264 266
248 249 250 252 253 254 255 257 258 258 258 259 259 258 258 258 258 259 259 259 258 256 255 255 254 254 254 254 254 253 253 253 253 253 253 253 253 253 253 255 256 258 258 257 259 260 262 263 265
249 250 252 252 253 254 256 258 259 260 261 261 261 260 260 259 259 260 260 260 259 258 258 256 256 255 255 254 254 253 253 253 254 253 253 253 253 253 253 254 256 257 259 259 260 261 263 264 265
251 252 254 255 256 257 258 260 262 263 263 263 264 262 262 262 261 261 261 262 262 261 260 259 258 256 255 255 254 254 254 253 253 254 253 253 253 254 254 254 255 257 258 259 260 261 263 265 266
254 255 256 258 260 261 261 262 264 265 265 265 265 265 264 263 263 263 263 263 263 263 262 262 260 258 256 255 255 255 254 253 253 253 254 254 254 254 255 255 256 256 258 259 260 261 262 263 265
256 258 259 260 262 263 264 265 265 265 266 266 266 267 267 265 264 264 264 263 264 264 264 263 262 260 258 256 256 255 255 254 254 254 254 254 254 255 256 256 257 256 257 259 260 259 261 262 264
260 262 263 264 266 267 267 267 267 267 268 268 269 269 269 268 267 266 265 265 265 266 265 264 263 262 260 258 256 255 255 255 254 254 254 254 254 255 255 256 257 257 257 258 259 260 260 261 262
262 264 266 268 268 269 269 270 270 270 269 270 270 270 270 269 269 269 268 268 267 267 267 266 265 263 261 259 257 255 255 254 254 254 254 254 254 254 255 255 256 257 258 258 259 260 260 261 262
262 266 269 272 272 272 272 271 271 271 271 272 273 272 271 270 270 270 270 270 269 268 268 267 265 264 261 259 258 256 255 255 254 253 253 254 253 253 255 255 256 257 258 259 259 260 261 261 261
265 267 270 273 275 275 274 273 271 272 273 274 274 274 274 273 272 271 271 270 269 269 268 268 267 265 263 260 258 257 256 255 254 254 254 254 253 253 254 254 255 257 258 259 259 259 261 261 261
268 269 271 274 276 277 275 274 274 275 276 276 277 277 276 275 275 274 273 272 271 271 270 269 268 266 265 262 260 258 258 256 255 254 254 253 254 253 254 254 255 256 256 257 258 258 259 260 261
271 272 274 275 276 277 277 276 278 279 279 280 280 280 279 277 277 275 274 273 273 273 272 271 269 267 266 264 262 260 259 257 255 255 254 254 254 253 253 253 254 255 255 256 257 258 258 259 260
274 276 277 277 278 279 280 281 281 282 282 282 283 282 281 279 278 278 276 275 274 274 274 274 272 269 267 266 264 263 260 258 256 255 255 255 254 253 253 254 255 255 255 256 257 257 257 259 260
276 278 279 281 283 283 283 285 285 285 285 286 286 285 283 282 281 280 278 276 276 276 276 276 273 271 270 269 267 264 261 259 256 255 256 256 254 253 252 253 254 255 255 256 256 257 257 258 260
279 280 282 285 286 286 286 287 288 288 288 288 288 287 285 285 284 283 281 279 279 278 278 277 275 273 271 270 268 265 262 260 257 257 257 256 254 253 252 253 253 255 255 256 256 257 258 258 259
281 283 285 287 290 289 289 290 290 291 291 291 291 289 288 288 287 287 285 282 281 281 280 279 278 275 273 272 270 267 263 259 258 257 256 256 255 253 253 253 254 254 256 257 257 257 258 258 259
282 285 287 289 291 291 291 292 293 295 294 293 292 290 291 291 289 289 288 286 285 284 283 281 280 279 275 272 270 267 264 260 258 258 256 256 257 254 253 253 254 255 256 257 257 258 258 258 258
283 286 289 293 293 293 294 295 297 298 298 296 294 294 294 292 291 292 293 291 289 287 285 283 281 280 278 273 269 267 265 262 260 260 257 257 256 255 254 254 254 255 257 257 257 258 258 258 258
283 286 290 294 295 296 297 299 301 301 300 299 297 296 294 293 294 296 297 294 292 290 288 284 283 282 280 275 270 268 267 265 262 261 259 257 256 256 256 256 256 256 257 257 258 259 259 259 258
283 286 289 293 295 297 299 300 304 304 303 301 300 299 296 296 298 299 300 297 294 294 291 286 284 284 283 280 274 271 270 266 263 262 260 258 257 256 256 257 257 257 258 258 259 259 259 260 259
282 285 288 292 296 298 302 301 304 307 306 304 303 301 300 300 301 302 303 301 299 297 294 291 289 287 285 283 279 275 274 272 267 264 261 260 259 257 256 257 257 256 258 260 260 261 261 260 259
282 286 290 294 297 300 302 301 306 309 307 307 305 303 303 303 302 304 304 303 302 300 297 295 293 291 288 287 284 281 278 277 272 266 261 261 260 260 260 258 258 256 258 260 261 261 260 260 260
281 285 290 295 299 301 301 302 306 308 308 308 308 305 303 303 304 305 305 305 304 303 300 298 297 295 292 290 289 286 282 282 278 270 264 263 263 263 261 259 257 257 259 260 261 260 259 259 260
280 284 288 292 297 299 301 303 306 308 307 307 307 305 304 305 306 307 306 305 305 305 303 301 302 299 297 294 293 291 287 287 282 273 268 266 265 264 262 258 256 258 260 260 260 261 261 260 260
278 283 288 291 295 298 300 301 305 308 305 306 306 306 305 306 306 306 306 306 306 306 304 304 304 302 302 299 297 295 293 290 286 280 275 271 267 265 263 259 258 260 261 260 260 261 261 261 260
276 281 285 289 292 295 298 300 303 305 306 307 305 305 306 307 308 308 307 308 309 309 307 305 306 305 305 302 300 300 299 294 289 283 278 273 269 265 261 259 260 262 261 260 260 261 260 261 260
274 279 283 287 290 292 294 297 301 304 304 305 305 305 306 307 308 309 310 309 308 307 308 308 307 307 305 304 304 305 302 298 292 288 282 277 271 266 262 260 262 263 263 262 261 262 261 260 258